FENGYUN 1C DEB

Satellite information

Favourite Embed

Satellite Type and Status

DEBRISIN ORBIT

Key statistics

Satellite FENGYUN 1C DEB at a glance.

Uptime

9609

Days in orbit

Revolutions

≈ 14.2

Per day

Orbit

SSO

Sun Synchronous Orbit

Inclination

98.7

Latest

Satellite identification and parameters

Extended collection of information and parameters for FENGYUN 1C DEB.

Object identification

Identified? True

Debris? True

Object name: FENGYUN 1C DEB

International designator: 1999-025EPB

Object number (NORAD): 37926

Object ID (CCSDS): 37926

Country: PEOPLES REPUBLIC OF CHINA (PRC)

Current information (Y/N): Y

RCS size: SMALL

Orbital parameters

Period: 101.177 minutes

Inclination: 98.732 deg

SMA: 7192.509 km

Apoapsis: 854.304 km

Periapsis: 774.445 km

RAAN: 305.7313 deg

Eccentricy: 0.00555157

Argument of periapsis: 165.7067 deg

Mean anomaly: 320.1258 deg

Mean motion: 14.23253017 rev/day

Mean motion (dot): 0.00003913 rev/day2

B* drag term: 0.0017201998 1/REarth

Two-line elements (TLE)

Creation date: Aug. 30, 2025, 3:38 a.m.

Reference frame: TEME

Reference center: EARTH

Epoch: Aug. 29, 2025, 6:07 p.m. UTC

TLE line 0: 0 FENGYUN 1C DEB

TLE line 1: 1 37926U 99025EPB 25241.75497405 .00003913 00000-0 17202-2 0 9997

TLE line 2: 2 37926 98.7320 305.7313 0055516 165.7067 320.1258 14.23253017727762

Live tracking on map

Real-time ground track for satellite FENGYUN 1C DEB.

In-orbit conjunctions

A list of the most updated potential collisions computed for object FENGYUN 1C DEB.

Target Orbit TCA Probability of collision Miss distance Type
COSMOS 1603 LEO 2025-02-20 21:17:31 0.0001170519 205.0 (m) PAYLOAD
PEGASUS R/B LEO 2024-06-28 06:47:35 0.0001521674 710.0 (m) ROCKET BODY

Associated space launch

Chinese polar orbiting meteorological satellite

FENGYUN 1C DEB was lifted into orbit during the mission ‘Long March 4B | Feng Yun 1C’, on board a Long March 4B space rocket.

The launch took place on May 10, 1999, 1:33 a.m. from Launch Complex 7.

For more information about the launch, click the button.

Launch to space Long March 4B | Feng Yun 1C
Long March 4B | Feng Yun 1C

Agency: N/A

Status: Launch Successful

Launch date: May 10, 1999, 1:33 a.m. UTC

Rocket: Long March 4B

Launch pad: Launch Complex 7

Location: Taiyuan Satellite Launch Center, People's Republic of China

...

Latest news about this satellite

There are no fresh news available about this satellite. Check back as we update our databases every day.


Newsletter sign-up

Weekly statistics, charts and insights to help you stay on top of the space industry.